Independence — WDD6659 — position and weather

sailwx.info

Track history (hours):
 
Tides and Currents Weather Stations Pressure Air Temp Water Temp Dewpoint Dewpoint Depression Visibility Wind Speed Wind Dir Waves Ship Positions

Independence

Owner: Sortwell, Inc. DBA AmNav Maritime Services, Oakland, CA. More information available from US FCC via Universal Licensing System and Coast Guard Vessel Documentation Center.

Last reported at 2014-Oct-26 02:34 UTC. Time now 2014-Oct-26 02:55 UTC.
Position N 33°46' W 118°13'.

Length 24 m; draft 4.9 m.

Type: Tug. MMSI: 367175860.

Date/timePositionNaut miles runAvg speedWind from/ knotsBaromVisibWave heightAir tempDewpointWater temp
2014-Oct-26 02:34N 33°46' W 118°13'1 0.7
2014-Oct-26 01:33N 33°46' W 118°13'1 1.5
2014-Oct-26 00:33N 33°45' W 118°13'2 2.3
2014-Oct-25 23:33N 33°44' W 118°11'3 3.0
2014-Oct-25 22:33N 33°43' W 118°14'2 1.9
2014-Oct-25 21:33N 33°44' W 118°17'0 0.0
2014-Oct-25 20:33N 33°44' W 118°17'0 0.0
2014-Oct-25 19:30N 33°44' W 118°17'0 0.0
2014-Oct-25 17:33N 33°44' W 118°17'0 0.0
2014-Oct-25 16:13N 33°44' W 118°17'0 0.0
2014-Oct-25 15:29N 33°44' W 118°17'0 0.0
2014-Oct-25 14:33N 33°44' W 118°17'1 0.9
2014-Oct-25 13:34N 33°45' W 118°16'2 1.7
2014-Oct-25 12:33N 33°43' W 118°16'0 0.3
2014-Oct-25 11:33N 33°43' W 118°16'1 0.5
2014-Oct-25 10:09N 33°44' W 118°17'0 0.0
2014-Oct-25 09:33N 33°44' W 118°17'0 0.0
2014-Oct-25 08:33N 33°44' W 118°17'0 0.0
2014-Oct-25 07:33N 33°44' W 118°17'0 0.0
2014-Oct-25 06:33N 33°44' W 118°17'0 0.0
2014-Oct-25 05:33N 33°44' W 118°17'0 0.0
2014-Oct-25 04:33N 33°44' W 118°17'0 0.0
2014-Oct-25 03:13N 33°44' W 118°17'0 0.0
2014-Oct-25 02:33N 33°44' W 118°17'4 4.0
2014-Oct-25 01:33N 33°44' W 118°12'1 0.7
2014-Oct-25 00:34N 33°44' W 118°11'1 0.8
2014-Oct-24 23:34N 33°44' W 118°11'3 2.8
2014-Oct-24 22:33N 33°43' W 118°14'2 2.2
2014-Oct-24 21:33N 33°44' W 118°17'0 0.0
2014-Oct-24 20:15N 33°44' W 118°17'0 0.0
2014-Oct-24 19:34N 33°44' W 118°17'0 0.0
2014-Oct-24 18:13N 33°44' W 118°17'0 0.0
2014-Oct-24 17:20N 33°44' W 118°17'0 0.0
2014-Oct-24 14:32N 33°44' W 118°17'0 0.0
2014-Oct-24 13:34N 33°44' W 118°17'0 0.0
2014-Oct-24 12:33N 33°44' W 118°17'0 0.0
2014-Oct-24 11:28N 33°44' W 118°17'0 0.0
2014-Oct-24 09:33N 33°44' W 118°17'0 0.0
2014-Oct-24 08:32N 33°44' W 118°17'0 0.0
2014-Oct-24 07:33N 33°44' W 118°17'0 0.0
2014-Oct-24 06:33N 33°44' W 118°17'0 0.0
2014-Oct-24 05:33N 33°44' W 118°17'0 0.0
2014-Oct-24 04:33N 33°44' W 118°17'0 0.0
2014-Oct-24 03:33N 33°44' W 118°17'0 0.0
2014-Oct-24 00:32N 33°44' W 118°17'0 0.0
2014-Oct-23 23:33N 33°44' W 118°17'0 0.0
2014-Oct-23 22:33N 33°44' W 118°17'0 0.0
2014-Oct-23 21:33N 33°44' W 118°17'0 0.0
2014-Oct-23 20:33N 33°44' W 118°17'0 0.0
2014-Oct-23 19:33N 33°44' W 118°17'0 0.0
2014-Oct-23 18:24N 33°44' W 118°17'0 0.0
2014-Oct-23 17:33N 33°44' W 118°17'0 0.0
2014-Oct-23 16:30N 33°44' W 118°17'0 0.0
2014-Oct-23 15:29N 33°44' W 118°17'0 0.0
2014-Oct-23 14:19N 33°44' W 118°17'1 1.9
2014-Oct-23 13:33N 33°44' W 118°15'1 1.2
2014-Oct-23 12:34N 33°43' W 118°15'2 1.8
2014-Oct-23 11:33N 33°44' W 118°17'0 0.0
2014-Oct-23 10:33N 33°44' W 118°17'0 0.0
2014-Oct-23 08:26N 33°44' W 118°17'0 0.0
2014-Oct-23 07:21N 33°44' W 118°17'0 0.0
2014-Oct-23 06:30N 33°44' W 118°17'0 0.0
2014-Oct-23 05:33N 33°44' W 118°17'0 0.0
2014-Oct-23 04:33N 33°44' W 118°17'0 0.0
2014-Oct-23 03:33N 33°44' W 118°17'0 0.0
2014-Oct-23 02:33N 33°44' W 118°17'0 0.0
2014-Oct-23 01:33N 33°44' W 118°17'0 0.0
2014-Oct-23 00:33N 33°44' W 118°17'0 0.0
2014-Oct-22 23:34N 33°44' W 118°17'0 0.0
2014-Oct-22 22:33N 33°44' W 118°17'0 0.0
2014-Oct-22 20:33N 33°44' W 118°17'0 0.0
2014-Oct-22 19:33N 33°44' W 118°17'0 0.0
2014-Oct-22 18:26N 33°44' W 118°17'0 0.0
2014-Oct-22 16:16N 33°44' W 118°17'0 0.0
2014-Oct-22 13:08N 33°44' W 118°17'3 4.7
2014-Oct-22 12:33N 33°46' W 118°15'1 1.5
2014-Oct-22 11:34N 33°45' W 118°13'0 0.3
2014-Oct-22 10:33N 33°45' W 118°13'1 1.0
2014-Oct-22 09:34N 33°44' W 118°14'2 2.3
2014-Oct-22 08:33N 33°44' W 118°16'0 0.3
2014-Oct-22 07:29N 33°44' W 118°16'0 0.0
2014-Oct-22 02:27N 33°44' W 118°17'3 3.2
2014-Oct-22 01:33N 33°44' W 118°13'1 0.7
2014-Oct-22 00:33N 33°44' W 118°12'3 3.5
2014-Oct-21 23:33N 33°44' W 118°17'0 0.0
2014-Oct-21 22:32N 33°44' W 118°17'0 0.0
2014-Oct-21 21:33N 33°44' W 118°17'0 0.0
2014-Oct-21 20:33N 33°44' W 118°17'0 0.0
2014-Oct-21 19:34N 33°44' W 118°17'0 0.0
2014-Oct-21 18:33N 33°44' W 118°17'0 0.0
2014-Oct-21 17:30N 33°44' W 118°17'0 0.0
2014-Oct-21 16:32N 33°44' W 118°17'0 0.1
2014-Oct-21 15:32N 33°44' W 118°17'0 0.0
2014-Oct-21 14:33N 33°44' W 118°17'0 0.0
2014-Oct-21 13:33N 33°44' W 118°17'0 0.0
2014-Oct-21 12:34N 33°44' W 118°17'1 0.7
2014-Oct-21 11:26N 33°43' W 118°16'1 1.3
2014-Oct-21 10:31N 33°44' W 118°15'1 0.6
2014-Oct-21 08:24N 33°44' W 118°17'1 0.1
2014-Oct-21 01:33N 33°45' W 118°16'1 0.6
2014-Oct-20 23:23N 33°44' W 118°16'0 0.0
2014-Oct-19 20:29N 33°44' W 118°17'0 0.0
2014-Oct-19 19:31N 33°44' W 118°17'0 0.0
2014-Oct-19 16:28N 33°44' W 118°17'1 0.1
2014-Oct-19 01:19N 33°44' W 118°16'1 0.9
2014-Oct-19 00:24N 33°44' W 118°17'0 0.0
2014-Oct-18 23:22N 33°44' W 118°17'0 0.0
2014-Oct-18 22:27N 33°44' W 118°17'3 2.5
2014-Oct-18 21:24N 33°44' W 118°13'2 2.8
2014-Oct-18 20:33N 33°46' W 118°13'0 0.0
2014-Oct-18 19:34N 33°46' W 118°13'4 3.4
2014-Oct-18 18:24N 33°44' W 118°10'2 2.8
2014-Oct-18 17:33N 33°44' W 118°13'3 2.8
2014-Oct-18 16:21N 33°44' W 118°17'4 5.5
2014-Oct-18 15:33N 33°44' W 118°11'2 2.4
2014-Oct-18 14:33N 33°45' W 118°13'3 2.7
2014-Oct-18 13:20N 33°44' W 118°17'0 0.0
2014-Oct-18 12:33N 33°44' W 118°17'0 0.0
2014-Oct-18 11:32N 33°44' W 118°17'0 0.0
2014-Oct-18 10:33N 33°44' W 118°17'0 0.0
2014-Oct-18 09:33N 33°44' W 118°17'0 0.0
2014-Oct-18 08:33N 33°44' W 118°17'0 0.0
2014-Oct-18 06:22N 33°44' W 118°17'0 0.0
2014-Oct-18 04:03N 33°44' W 118°17'0 0.0
2014-Oct-18 03:12N 33°44' W 118°17'0 0.0
2014-Oct-18 02:30N 33°44' W 118°17'0 0.0
2014-Oct-18 01:31N 33°44' W 118°17'2 1.8
2014-Oct-18 00:33N 33°45' W 118°16'0 0.2
2014-Oct-17 23:34N 33°46' W 118°16'2 1.9
2014-Oct-17 22:33N 33°44' W 118°17'0 0.0
2014-Oct-17 21:33N 33°44' W 118°17'0 0.0
2014-Oct-17 20:33N 33°44' W 118°17'0 0.0
2014-Oct-17 19:33N 33°44' W 118°17'0 0.0
2014-Oct-17 18:08N 33°44' W 118°17'0 0.0
2014-Oct-17 15:18N 33°44' W 118°17'0 0.0
2014-Oct-17 13:32N 33°44' W 118°17'3 3.3
2014-Oct-17 12:33N 33°46' W 118°14'2 1.7
2014-Oct-17 11:34N 33°45' W 118°13'2 2.3
2014-Oct-17 10:33N 33°43' W 118°15'2 0.2
2014-Oct-17 01:21N 33°44' W 118°17'0 0.0
2014-Oct-17 00:32N 33°44' W 118°17'0 0.0
2014-Oct-16 23:27N 33°44' W 118°17'2 1.9
2014-Oct-16 22:29N 33°43' W 118°15'2 2.5
2014-Oct-16 21:32N 33°44' W 118°12'0 0.4
2014-Oct-16 20:33N 33°44' W 118°12'3 1.5
2014-Oct-16 18:20N 33°44' W 118°17'0 0.0
2014-Oct-16 14:26N 33°44' W 118°17'3 2.6
2014-Oct-16 13:22N 33°43' W 118°13'2 2.2
2014-Oct-16 12:34N 33°44' W 118°11'2 2.1
2014-Oct-16 11:33N 33°43' W 118°13'  
Track history (hours):
 
Tides and Currents Weather Stations Pressure Air Temp Water Temp Dewpoint Dewpoint Depression Visibility Wind Speed Wind Dir Waves Ship Positions

Independence

Owner: Sortwell, Inc. DBA AmNav Maritime Services, Oakland, CA. More information available from US FCC via Universal Licensing System and Coast Guard Vessel Documentation Center.

Last reported at 2014-Oct-26 02:34 UTC. Time now 2014-Oct-26 02:55 UTC.
Position N 33°46' W 118°13'.

Length 24 m; draft 4.9 m.

Type: Tug. MMSI: 367175860.

Date/timePositionNaut miles runAvg speedWind from/ knotsBaromVisibWave heightAir tempDewpointWater temp
2014-Oct-26 02:34N 33°46' W 118°13'1 0.7
2014-Oct-26 01:33N 33°46' W 118°13'1 1.5
2014-Oct-26 00:33N 33°45' W 118°13'2 2.3
2014-Oct-25 23:33N 33°44' W 118°11'3 3.0
2014-Oct-25 22:33N 33°43' W 118°14'2 1.9
2014-Oct-25 21:33N 33°44' W 118°17'0 0.0
2014-Oct-25 20:33N 33°44' W 118°17'0 0.0
2014-Oct-25 19:30N 33°44' W 118°17'0 0.0
2014-Oct-25 17:33N 33°44' W 118°17'0 0.0
2014-Oct-25 16:13N 33°44' W 118°17'0 0.0
2014-Oct-25 15:29N 33°44' W 118°17'0 0.0
2014-Oct-25 14:33N 33°44' W 118°17'1 0.9
2014-Oct-25 13:34N 33°45' W 118°16'2 1.7
2014-Oct-25 12:33N 33°43' W 118°16'0 0.3
2014-Oct-25 11:33N 33°43' W 118°16'1 0.5
2014-Oct-25 10:09N 33°44' W 118°17'0 0.0
2014-Oct-25 09:33N 33°44' W 118°17'0 0.0
2014-Oct-25 08:33N 33°44' W 118°17'0 0.0
2014-Oct-25 07:33N 33°44' W 118°17'0 0.0
2014-Oct-25 06:33N 33°44' W 118°17'0 0.0
2014-Oct-25 05:33N 33°44' W 118°17'0 0.0
2014-Oct-25 04:33N 33°44' W 118°17'0 0.0
2014-Oct-25 03:13N 33°44' W 118°17'0 0.0
2014-Oct-25 02:33N 33°44' W 118°17'4 4.0
2014-Oct-25 01:33N 33°44' W 118°12'1 0.7
2014-Oct-25 00:34N 33°44' W 118°11'1 0.8
2014-Oct-24 23:34N 33°44' W 118°11'3 2.8
2014-Oct-24 22:33N 33°43' W 118°14'2 2.2
2014-Oct-24 21:33N 33°44' W 118°17'0 0.0
2014-Oct-24 20:15N 33°44' W 118°17'0 0.0
2014-Oct-24 19:34N 33°44' W 118°17'0 0.0
2014-Oct-24 18:13N 33°44' W 118°17'0 0.0
2014-Oct-24 17:20N 33°44' W 118°17'0 0.0
2014-Oct-24 14:32N 33°44' W 118°17'0 0.0
2014-Oct-24 13:34N 33°44' W 118°17'0 0.0
2014-Oct-24 12:33N 33°44' W 118°17'0 0.0
2014-Oct-24 11:28N 33°44' W 118°17'0 0.0
2014-Oct-24 09:33N 33°44' W 118°17'0 0.0
2014-Oct-24 08:32N 33°44' W 118°17'0 0.0
2014-Oct-24 07:33N 33°44' W 118°17'0 0.0
2014-Oct-24 06:33N 33°44' W 118°17'0 0.0
2014-Oct-24 05:33N 33°44' W 118°17'0 0.0
2014-Oct-24 04:33N 33°44' W 118°17'0 0.0
2014-Oct-24 03:33N 33°44' W 118°17'0 0.0
2014-Oct-24 00:32N 33°44' W 118°17'0 0.0
2014-Oct-23 23:33N 33°44' W 118°17'0 0.0
2014-Oct-23 22:33N 33°44' W 118°17'0 0.0
2014-Oct-23 21:33N 33°44' W 118°17'0 0.0
2014-Oct-23 20:33N 33°44' W 118°17'0 0.0
2014-Oct-23 19:33N 33°44' W 118°17'0 0.0
2014-Oct-23 18:24N 33°44' W 118°17'0 0.0
2014-Oct-23 17:33N 33°44' W 118°17'0 0.0
2014-Oct-23 16:30N 33°44' W 118°17'0 0.0
2014-Oct-23 15:29N 33°44' W 118°17'0 0.0
2014-Oct-23 14:19N 33°44' W 118°17'1 1.9
2014-Oct-23 13:33N 33°44' W 118°15'1 1.2
2014-Oct-23 12:34N 33°43' W 118°15'2 1.8
2014-Oct-23 11:33N 33°44' W 118°17'0 0.0
2014-Oct-23 10:33N 33°44' W 118°17'0 0.0
2014-Oct-23 08:26N 33°44' W 118°17'0 0.0
2014-Oct-23 07:21N 33°44' W 118°17'0 0.0
2014-Oct-23 06:30N 33°44' W 118°17'0 0.0
2014-Oct-23 05:33N 33°44' W 118°17'0 0.0
2014-Oct-23 04:33N 33°44' W 118°17'0 0.0
2014-Oct-23 03:33N 33°44' W 118°17'0 0.0
2014-Oct-23 02:33N 33°44' W 118°17'0 0.0
2014-Oct-23 01:33N 33°44' W 118°17'0 0.0
2014-Oct-23 00:33N 33°44' W 118°17'0 0.0
2014-Oct-22 23:34N 33°44' W 118°17'0 0.0
2014-Oct-22 22:33N 33°44' W 118°17'0 0.0
2014-Oct-22 20:33N 33°44' W 118°17'0 0.0
2014-Oct-22 19:33N 33°44' W 118°17'0 0.0
2014-Oct-22 18:26N 33°44' W 118°17'0 0.0
2014-Oct-22 16:16N 33°44' W 118°17'0 0.0
2014-Oct-22 13:08N 33°44' W 118°17'3 4.7
2014-Oct-22 12:33N 33°46' W 118°15'1 1.5
2014-Oct-22 11:34N 33°45' W 118°13'0 0.3
2014-Oct-22 10:33N 33°45' W 118°13'1 1.0
2014-Oct-22 09:34N 33°44' W 118°14'2 2.3
2014-Oct-22 08:33N 33°44' W 118°16'0 0.3
2014-Oct-22 07:29N 33°44' W 118°16'0 0.0
2014-Oct-22 02:27N 33°44' W 118°17'3 3.2
2014-Oct-22 01:33N 33°44' W 118°13'1 0.7
2014-Oct-22 00:33N 33°44' W 118°12'3 3.5
2014-Oct-21 23:33N 33°44' W 118°17'0 0.0
2014-Oct-21 22:32N 33°44' W 118°17'0 0.0
2014-Oct-21 21:33N 33°44' W 118°17'0 0.0
2014-Oct-21 20:33N 33°44' W 118°17'0 0.0
2014-Oct-21 19:34N 33°44' W 118°17'0 0.0
2014-Oct-21 18:33N 33°44' W 118°17'0 0.0
2014-Oct-21 17:30N 33°44' W 118°17'0 0.0
2014-Oct-21 16:32N 33°44' W 118°17'0 0.1
2014-Oct-21 15:32N 33°44' W 118°17'0 0.0
2014-Oct-21 14:33N 33°44' W 118°17'0 0.0
2014-Oct-21 13:33N 33°44' W 118°17'0 0.0
2014-Oct-21 12:34N 33°44' W 118°17'1 0.7
2014-Oct-21 11:26N 33°43' W 118°16'1 1.3
2014-Oct-21 10:31N 33°44' W 118°15'1 0.6
2014-Oct-21 08:24N 33°44' W 118°17'1 0.1
2014-Oct-21 01:33N 33°45' W 118°16'1 0.6
2014-Oct-20 23:23N 33°44' W 118°16'0 0.0
2014-Oct-19 20:29N 33°44' W 118°17'0 0.0
2014-Oct-19 19:31N 33°44' W 118°17'0 0.0
2014-Oct-19 16:28N 33°44' W 118°17'1 0.1
2014-Oct-19 01:19N 33°44' W 118°16'1 0.9
2014-Oct-19 00:24N 33°44' W 118°17'0 0.0
2014-Oct-18 23:22N 33°44' W 118°17'0 0.0
2014-Oct-18 22:27N 33°44' W 118°17'3 2.5
2014-Oct-18 21:24N 33°44' W 118°13'2 2.8
2014-Oct-18 20:33N 33°46' W 118°13'0 0.0
2014-Oct-18 19:34N 33°46' W 118°13'4 3.4
2014-Oct-18 18:24N 33°44' W 118°10'2 2.8
2014-Oct-18 17:33N 33°44' W 118°13'3 2.8
2014-Oct-18 16:21N 33°44' W 118°17'4 5.5
2014-Oct-18 15:33N 33°44' W 118°11'2 2.4
2014-Oct-18 14:33N 33°45' W 118°13'3 2.7
2014-Oct-18 13:20N 33°44' W 118°17'0 0.0
2014-Oct-18 12:33N 33°44' W 118°17'0 0.0
2014-Oct-18 11:32N 33°44' W 118°17'0 0.0
2014-Oct-18 10:33N 33°44' W 118°17'0 0.0
2014-Oct-18 09:33N 33°44' W 118°17'0 0.0
2014-Oct-18 08:33N 33°44' W 118°17'0 0.0
2014-Oct-18 06:22N 33°44' W 118°17'0 0.0
2014-Oct-18 04:03N 33°44' W 118°17'0 0.0
2014-Oct-18 03:12N 33°44' W 118°17'0 0.0
2014-Oct-18 02:30N 33°44' W 118°17'0 0.0
2014-Oct-18 01:31N 33°44' W 118°17'2 1.8
2014-Oct-18 00:33N 33°45' W 118°16'0 0.2
2014-Oct-17 23:34N 33°46' W 118°16'2 1.9
2014-Oct-17 22:33N 33°44' W 118°17'0 0.0
2014-Oct-17 21:33N 33°44' W 118°17'0 0.0
2014-Oct-17 20:33N 33°44' W 118°17'0 0.0
2014-Oct-17 19:33N 33°44' W 118°17'0 0.0
2014-Oct-17 18:08N 33°44' W 118°17'0 0.0
2014-Oct-17 15:18N 33°44' W 118°17'0 0.0
2014-Oct-17 13:32N 33°44' W 118°17'3 3.3
2014-Oct-17 12:33N 33°46' W 118°14'2 1.7
2014-Oct-17 11:34N 33°45' W 118°13'2 2.3
2014-Oct-17 10:33N 33°43' W 118°15'2 0.2
2014-Oct-17 01:21N 33°44' W 118°17'0 0.0
2014-Oct-17 00:32N 33°44' W 118°17'0 0.0
2014-Oct-16 23:27N 33°44' W 118°17'2 1.9
2014-Oct-16 22:29N 33°43' W 118°15'2 2.5
2014-Oct-16 21:32N 33°44' W 118°12'0 0.4
2014-Oct-16 20:33N 33°44' W 118°12'3 1.5
2014-Oct-16 18:20N 33°44' W 118°17'0 0.0
2014-Oct-16 14:26N 33°44' W 118°17'3 2.6
2014-Oct-16 13:22N 33°43' W 118°13'2 2.2
2014-Oct-16 12:34N 33°44' W 118°11'2 2.1
2014-Oct-16 11:33N 33°43' W 118°13'  

Dump ship's entire track history